Flag for Nigeria Weather past 2 weeks in Port Harcourt, Nigeria

Now
77 °F

Passing clouds.


Feels Like: 78 °F
Forecast: 77 / 98 °F
Wind: 3 mph from Southwest

Location: Malabo/Fernando Poo


UV Index: 7 (High)

Visibility: N/A


Pressure: 29.83 "Hg

Humidity: 89%

Dew point: 73 °F

Location of Port HarcourtLocation

Historic Weather in Port Harcourt

°F

Port Harcourt temperature yesterday

Maximum temperature yesterday: 90 °F (at 4:00 PM)
Minimum temperature yesterday: 73 °F (at 3:00 AM)
Average temperature yesterday: 81 °F

Past Weeks' High & Low Weather Summary

 TemperatureHumidityPressure
High90 °F (Apr 4, 12:00 PM)94% (Apr 3, 12:00 AM)29.95 "Hg (Apr 3, 12:00 AM)
Low72 °F (Apr 16, 5:00 AM)59% (Apr 3, 1:00 PM)29.74 "Hg (Apr 12, 4:00 PM)
Average80 °F81%29.85 "Hg
* Reported Apr 2 11:00 PM — Apr 17 11:00 PM, Port Harcourt, Weather by CustomWeather, © 2014

Note: Actual official high and low records may vary slightly from our data, if they occured in-between our weather recording intervals... More about our weather records

Advertising

Historic Weather Conditions — Data for Previous 24 hours

 ConditionsComfort  
Time TempWeatherWind HumidityBarometerVisibility
11:00 PM
Apr 17
77 °FPassing clouds.3 mph89%29.83 "HgN/A
10:00 PM77 °FPassing clouds.2 mph94%29.80 "HgN/A
9:00 PM79 °FThunderstorms. Passing clouds.5 mph89%29.80 "HgN/A
8:00 PM81 °FThunderstorms. Passing clouds.7 mph84%29.77 "HgN/A
7:00 PM81 °FThunderstorms. Passing clouds.6 mph84%29.77 "HgN/A
6:00 PM84 °FPassing clouds.7 mph74%29.74 "HgN/A
5:00 PM88 °FPassing clouds.7 mph66%29.74 "HgN/A
4:00 PM90 °FPassing clouds.6 mph63%29.74 "HgN/A
3:00 PM88 °FPassing clouds.6 mph62%29.77 "HgN/A
2:00 PM88 °FPassing clouds.7 mph66%29.80 "HgN/A
1:00 PM88 °FPassing clouds.3 mph66%29.83 "HgN/A
12:00 PM88 °FScattered clouds.6 mph66%29.86 "HgN/A
11:00 AM88 °FScattered clouds.5 mph70%29.86 "HgN/A
10:00 AM88 °FPassing clouds.6 mph66%29.86 "HgN/A
9:00 AM82 °FPassing clouds.6 mph84%29.86 "HgN/A
8:00 AM79 °FBroken clouds.9 mph89%29.86 "HgN/A
7:00 AM75 °FPartly sunny.1 mph94%29.83 "HgN/A
6:00 AM75 °FThunderstorms. Passing clouds.5 mph89%29.80 "HgN/A
5:00 AM75 °FThunderstorms. Passing clouds.3 mph89%29.77 "Hg4 mi
4:00 AMN/APassing clouds.N/AN/AN/AN/A
3:00 AM73 °FPassing clouds.3 mph94%29.83 "HgN/A
2:00 AM75 °FPassing clouds.3 mph89%29.83 "HgN/A
1:00 AM75 °FPassing clouds.1 mph89%29.86 "HgN/A
12:00 AM77 °FPassing clouds.5 mph89%29.86 "HgN/A
Weather by CustomWeather, © 2014

See weather overview